Location: ????????
(60.4333°N, 46.4710°E)
Time: 03:45:02
(UTC+00:00)

Sich 1 - Pass Details

Date: 25 November 2020
Orbit: 593 x 626 km, 82.5° (Epoch: 19 January)

Event Time Altitude Azimuth Distance (km) Brightness Sun altitude
Rises 13:54:49 0° 346° (NNW) 2,924 6.5 -12.6°
Reaches altitude 10° 13:57:05 10° 349° (NNW) 2,009 5.6 -12.8°
Maximum altitude 14:01:32 69° 73° (ENE) 669 3.0 -13.3°
Drops below altitude 10° 14:05:55 10° 157° (SSE) 1,977 5.6 -13.9°
Sets 14:08:07 0° 160° (SSE) 2,873 6.5 -14.1°
